[[{"header":{"parameterUnit":"m.s-1","parameterCategory":1,"la1":30.2991,"la2":30.254,"lo1":-89.0895,"lo2":-89.0444,"dy":0.0017,"dx":0.0017,"nx":28,"ny":28,"refTime":"2024-06-24T09:00:00:Z","depth":0,"parameterNumber":2,"parameterNumberName":"U-component_of_WINDS"},"data":[0,0,0,0,0,0,0,0,0,0,0,0,0,0,0,0,0,0,0,0,0,0,0,0,0,0,0,0,0,0,0,0,0,0,0,0,0,0,0,0,0,0,0,0,0,0,0,0,0,0,0,0,0,0,0,0,0,0,2.4249,2.425,0,2.4304,2.4304,2.4305,2.4221,2.4218,2.4215,2.4212,2.4275,2.4279,2.4284,0,0,0,0,0,0,0,0,0,0,0,0,0,2.4077,2.4081,2.4249,2.425,2.4251,2.4303,2.4304,2.4305,2.4221,2.4218,2.4214,2.4211,2.4274,2.4279,2.4284,0,0,0,0,0,0,0,0,0,0,0,0,0,2.4144,2.4082,2.4249,2.4215,2.4212,2.4303,2.4304,2.4305,2.4222,2.4217,2.4213,2.4209,2.4272,2.4278,2.4285,2.4414,0,0,2.4305,2.4308,0,0,0,0,0,0,0,0,2.414,2.4151,2.4219,2.4217,2.4215,2.4251,2.4267,2.4342,2.4223,2.4219,2.4212,2.4207,2.4271,2.4277,2.4298,2.4417,2.442,2.4306,2.431,2.4313,2.4315,0,0,0,0,0,0,0,2.4136,2.4148,2.4271,2.422,2.4218,2.4198,2.4203,2.4281,2.4269,2.4219,2.4213,2.422,2.4269,2.4291,2.4298,2.4421,2.4306,2.4312,2.4316,2.4318,2.4646,2.4651,0,0,0,0,0,0,2.4135,2.4144,2.4269,2.4272,2.4166,2.4205,2.421,2.4244,2.4268,2.4267,2.4223,2.4216,2.4282,2.4291,2.43,2.4451,2.4313,2.4319,2.4323,2.4641,2.4647,2.4652,0,0,0,0,0,0,2.4131,2.4147,2.4267,2.4207,2.4221,2.4213,2.4251,2.4247,2.4269,2.4272,2.427,2.4248,2.4279,2.4291,2.4385,2.4452,2.4322,2.4328,2.4636,2.4643,2.465,2.4755,0,0,0,0,0,0,2.4127,2.4146,2.4194,2.4208,2.4224,2.435,2.4255,2.4251,2.428,2.427,2.4294,2.4294,2.4277,2.4376,2.4392,2.4459,2.4333,2.463,2.4639,2.4647,2.4745,2.4765,2.4781,0,0,0,0,0,2.4121,2.4224,2.4197,2.4212,2.4284,2.4354,2.4363,2.4339,2.4286,2.4334,2.4335,2.4293,2.4442,2.4386,2.4404,2.4474,2.4625,2.4636,2.4647,2.4737,2.4761,2.4781,0,0,0,0,0,0,2.4221,2.4225,2.4195,2.4306,2.433,2.4339,2.44,2.4365,2.4407,2.4396,2.4366,2.4372,2.4473,2.4483,2.442,2.4598,2.4525,2.454,2.4588,2.461,2.4628,2.4623,2.4339,0,0,0,0,0,2.4255,2.4309,2.4311,2.4409,2.4422,2.4409,2.4439,2.4417,2.4442,2.4453,2.4461,2.4488,2.454,2.4576,2.4625,2.4746,2.475,2.4803,2.4821,2.4835,2.4848,2.4911,2.4934,2.4687,2.4687,2.4687,0,0,2.4327,2.4336,2.4374,2.4429,2.4445,2.4503,2.4418,2.4485,2.4527,2.4464,2.4551,2.4559,2.4587,2.4694,2.4742,2.4706,2.4917,2.4849,2.4861,2.4866,2.4924,2.4947,2.4968,2.4694,2.4693,2.4692,0,0,2.4488,2.4501,2.4582,2.4599,2.4623,2.4613,2.4633,2.4648,2.4649,2.4736,2.4688,2.474,2.4832,2.4853,2.4876,2.5042,2.5004,2.5059,2.5153,2.5214,2.5233,2.525,2.5308,2.5329,2.5072,2.5073,2.5073,0,2.4576,2.466,2.4629,2.4697,2.4722,2.4664,2.4745,2.4764,2.4805,2.4824,2.4782,2.4893,2.4909,2.5019,2.5059,2.508,2.5101,2.5056,2.5233,2.5249,2.5265,2.5319,2.5341,2.5079,2.5078,2.5078,2.5077,0,2.4765,2.4824,2.4887,2.4923,2.4956,2.5031,2.5012,2.5049,2.5024,2.502,2.5108,2.5124,2.5174,2.5198,2.5177,2.5306,2.5282,2.5237,2.5163,2.5295,2.5346,2.5367,2.5088,2.5086,2.5084,2.5082,0,0,2.4992,2.5008,2.5031,2.5046,2.5067,2.5113,2.5185,2.523,2.5261,2.5291,2.535,2.5428,2.5385,2.5411,2.5391,2.5445,2.5573,2.5393,2.5393,2.5425,2.5713,2.5745,2.577,2.5548,2.5552,2.5555,2.571,0,2.5151,2.5272,2.5245,2.5365,2.5419,2.5363,2.5425,2.5445,2.5442,2.5488,2.5486,2.554,2.5481,2.5496,2.5546,2.5547,2.563,2.5535,2.5603,2.5606,2.5596,2.5797,2.5832,2.5978,2.573,2.5733,2.5736,0,2.5353,2.5386,2.551,2.5519,2.5541,2.5597,2.5635,2.568,2.5701,2.5695,2.5723,2.5692,2.5763,2.5688,2.5786,2.5722,2.5748,2.5752,2.5757,2.5762,2.5678,2.5806,2.6024,2.6045,2.5767,2.5764,2.5762,0,2.5503,2.5579,2.5662,2.5677,2.5691,2.5731,2.574,2.5756,2.5785,2.5819,2.5836,2.588,2.5903,2.5938,2.5919,2.5866,2.602,2.5944,2.6017,2.6017,2.6052,2.6049,2.6276,2.6071,2.6071,2.607,2.607,0,2.5683,2.5761,2.5729,2.5781,2.5866,2.5835,2.5921,2.5922,2.5937,2.5988,2.5944,2.5994,2.5966,2.6014,2.6,2.6082,2.6094,2.6091,2.6086,2.6094,2.6094,2.611,2.6099,2.6076,2.6075,2.6074,2.6073,0,2.5865,2.5848,2.5934,2.5939,2.5942,2.6004,2.6009,2.6057,2.6049,2.6115,2.6128,2.6117,2.617,2.6155,2.6214,2.6204,2.6308,2.6291,2.6299,2.6295,2.6368,2.636,2.6611,2.6642,2.6419,2.6421,2.6423,0,2.598,2.6038,2.6048,2.6077,2.6087,2.6137,2.6163,2.6135,2.6165,2.6193,2.6237,2.6286,2.6323,2.641,2.6409,2.6453,2.6436,2.652,2.6442,2.6447,2.6435,2.6431,2.6435,2.6536,2.6539,2.6541,2.6542,0,2.6185,2.6173,2.6212,2.6249,2.6282,2.631,2.6334,2.6361,2.6334,2.6371,2.6423,2.6451,2.6509,2.6557,2.6597,2.6606,2.657,2.6567,2.6586,2.6594,2.6595,2.6593,2.634,2.6561,2.6559,2.6558,2.6557,2.6556,2.6336,2.6383,2.6397,2.6442,2.6456,2.6479,2.6523,2.652,2.6562,2.6604,2.6586,2.6645,2.6664,2.6712,2.6727,2.6773,2.6741,2.6769,2.6776,2.6783,2.6791,2.6589,2.6781,2.678,2.678,2.6779,2.6779,0,2.6537,2.6542,2.6584,2.6617,2.6652,2.6612,2.6636,2.6669,2.6721,2.674,2.6776,2.6835,2.6881,2.6882,2.6925,2.6962,2.6946,2.6974,2.697,2.6973,2.6819,2.6797,2.6986,2.6986,2.6986,2.6986,2.6986,2.6986,2.6645,2.6723,2.6712,2.6796,2.6801,2.6856,2.6873,2.6894,2.6909,2.6975,2.7012,2.7011,2.7023,2.7065,2.7106,2.7105,2.7122,2.7156,2.7149,2.7005,2.6984,2.6964,2.6944,2.716,2.7161,2.7299,2.73,2.7301]},{"header":{"parameterUnit":"m.s-1","parameterCategory":1,"la1":30.2991,"la2":30.254,"lo1":-89.0895,"lo2":-89.0444,"dy":0.0017,"dx":0.0017,"nx":28,"ny":28,"refTime":"2024-06-24T09:00:00:Z","depth":0,"parameterNumber":3,"parameterNumberName":"V-component_of_WINDS"},"data":[0,0,0,0,0,0,0,0,0,0,0,0,0,0,0,0,0,0,0,0,0,0,0,0,0,0,0,0,0,0,0,0,0,0,0,0,0,0,0,0,0,0,0,0,0,0,0,0,0,0,0,0,0,0,0,0,0,0,3.9388,3.9388,0,3.9388,3.9388,3.9388,3.9389,3.9389,3.9389,3.9389,3.9386,3.9386,3.9386,0,0,0,0,0,0,0,0,0,0,0,0,0,3.9385,3.9385,3.9388,3.9388,3.9388,3.9388,3.9388,3.9388,3.9389,3.9389,3.9389,3.9389,3.9386,3.9386,3.9386,0,0,0,0,0,0,0,0,0,0,0,0,0,3.9386,3.9385,3.9388,3.9388,3.9388,3.9388,3.9388,3.9388,3.9389,3.9389,3.9389,3.9389,3.9386,3.9386,3.9386,3.9384,0,0,3.9385,3.9385,0,0,0,0,0,0,0,0,3.9386,3.9386,3.9388,3.9388,3.9388,3.9388,3.9386,3.9386,3.9389,3.9388,3.9389,3.9389,3.9387,3.9386,3.9386,3.9384,3.9384,3.9385,3.9385,3.9385,3.9385,0,0,0,0,0,0,0,3.9386,3.9386,3.9388,3.9388,3.9388,3.9387,3.9387,3.9386,3.9387,3.9388,3.9388,3.9389,3.9387,3.9386,3.9386,3.9384,3.9385,3.9385,3.9385,3.9385,3.9378,3.9377,0,0,0,0,0,0,3.9386,3.9386,3.9388,3.9388,3.9387,3.9387,3.9388,3.9388,3.9387,3.9387,3.9389,3.9389,3.9387,3.9386,3.9386,3.9383,3.9385,3.9385,3.9385,3.9378,3.9377,3.9377,0,0,0,0,0,0,3.9386,3.9386,3.9388,3.9387,3.9387,3.9387,3.9388,3.9388,3.9388,3.9387,3.9387,3.9388,3.9387,3.9386,3.9384,3.9382,3.9385,3.9385,3.9378,3.9378,3.9377,3.9376,0,0,0,0,0,0,3.9386,3.9386,3.9387,3.9387,3.9387,3.9387,3.9388,3.9388,3.9388,3.9388,3.9387,3.9387,3.9387,3.9384,3.9384,3.9382,3.9385,3.9378,3.9378,3.9377,3.9376,3.9376,3.9376,0,0,0,0,0,3.9386,3.9386,3.9387,3.9387,3.9388,3.9387,3.9387,3.9387,3.9388,3.9388,3.9387,3.9387,3.9383,3.9384,3.9384,3.9382,3.9378,3.9378,3.9378,3.9377,3.9376,3.9376,0,0,0,0,0,0,3.9386,3.9386,3.9387,3.9388,3.9387,3.9387,3.9387,3.9387,3.9386,3.9386,3.9386,3.9386,3.9383,3.9382,3.9384,3.9379,3.938,3.938,3.938,3.9379,3.9379,3.9379,3.9385,0,0,0,0,0,3.9386,3.9386,3.9386,3.9387,3.9387,3.9387,3.9387,3.9387,3.9386,3.9386,3.9385,3.9384,3.9382,3.938,3.9379,3.9376,3.9375,3.9375,3.9374,3.9374,3.9373,3.937,3.9369,3.9377,3.9377,3.9377,0,0,3.9386,3.9386,3.9387,3.9387,3.9387,3.9386,3.9387,3.9386,3.9385,3.9386,3.9383,3.9382,3.9381,3.9378,3.9376,3.9377,3.9371,3.9374,3.9373,3.9373,3.937,3.9369,3.9368,3.9376,3.9376,3.9376,0,0,3.9385,3.9386,3.9386,3.9386,3.9385,3.9385,3.9385,3.9384,3.9384,3.9382,3.9382,3.9379,3.9377,3.9375,3.9374,3.937,3.9369,3.9369,3.9367,3.9364,3.9363,3.9363,3.936,3.9359,3.9369,3.9369,3.9369,0,3.9385,3.9385,3.9386,3.9385,3.9384,3.9385,3.9383,3.9383,3.9381,3.938,3.9381,3.9376,3.9375,3.9371,3.937,3.9369,3.9368,3.937,3.9364,3.9363,3.9363,3.936,3.9359,3.9369,3.9369,3.9369,3.9369,0,3.9384,3.9384,3.9384,3.9383,3.9382,3.9381,3.938,3.9379,3.9378,3.9377,3.9374,3.9372,3.9369,3.9368,3.9368,3.9363,3.9363,3.9364,3.9365,3.9362,3.9359,3.9358,3.9369,3.9369,3.9369,3.9369,0,0,3.9385,3.9383,3.9383,3.9382,3.938,3.9379,3.9377,3.9375,3.9373,3.9372,3.9369,3.9365,3.9365,3.9364,3.9363,3.936,3.9355,3.936,3.936,3.9358,3.9347,3.9347,3.9346,3.9355,3.9354,3.9354,3.9347,0,3.9383,3.9381,3.9381,3.9378,3.9376,3.9376,3.9373,3.9371,3.937,3.9367,3.9365,3.9362,3.9363,3.9362,3.9359,3.9356,3.9353,3.9357,3.935,3.935,3.935,3.9344,3.9344,3.9338,3.9346,3.9346,3.9346,0,3.9382,3.9381,3.9378,3.9375,3.9374,3.9373,3.9369,3.9367,3.9364,3.9363,3.936,3.9359,3.9355,3.9356,3.9349,3.9352,3.9349,3.9347,3.9347,3.9346,3.9348,3.9342,3.9336,3.9334,3.9345,3.9345,3.9345,0,3.9381,3.9379,3.9376,3.9375,3.9372,3.937,3.9369,3.9366,3.9364,3.936,3.9358,3.9354,3.9352,3.9348,3.9345,3.9346,3.9337,3.9339,3.9335,3.9335,3.9333,3.9333,3.9325,3.9332,3.9332,3.9332,3.9333,0,3.938,3.9378,3.9375,3.9374,3.9371,3.9369,3.9366,3.9364,3.9361,3.9357,3.9356,3.9353,3.9349,3.9345,3.9342,3.9336,3.9335,3.9333,3.9332,3.9333,3.9333,3.933,3.933,3.9332,3.9332,3.9332,3.9332,0,3.9379,3.9377,3.9374,3.9371,3.937,3.9368,3.9364,3.9362,3.9359,3.9355,3.9354,3.935,3.9345,3.9341,3.9334,3.9332,3.9325,3.9325,3.9326,3.9326,3.9321,3.9321,3.9311,3.9308,3.9318,3.9318,3.9318,0,3.9377,3.9376,3.9372,3.937,3.9369,3.9365,3.9363,3.9361,3.9358,3.9353,3.935,3.9345,3.934,3.9331,3.9327,3.9321,3.932,3.9316,3.9319,3.9319,3.9318,3.9318,3.9317,3.9316,3.9316,3.9316,3.9316,0,3.9375,3.9374,3.9371,3.9368,3.9365,3.9362,3.9358,3.9356,3.9353,3.935,3.9344,3.9341,3.9333,3.9327,3.932,3.9317,3.9315,3.9315,3.9313,3.9314,3.9314,3.9312,3.9324,3.9315,3.9315,3.9315,3.9315,3.9315,3.9373,3.9371,3.9368,3.9364,3.9361,3.9357,3.9354,3.9351,3.9347,3.9341,3.934,3.9333,3.9328,3.9318,3.9315,3.9308,3.9309,3.9307,3.9306,3.9306,3.9305,3.9315,3.9307,3.9307,3.9307,3.9307,3.9307,0,3.937,3.9367,3.9364,3.9359,3.9356,3.9355,3.9351,3.9347,3.9342,3.9337,3.9333,3.9325,3.9318,3.9313,3.9305,3.9301,3.93,3.9299,3.9299,3.9298,3.9306,3.9307,3.93,3.93,3.93,3.93,3.93,3.93,3.9368,3.9363,3.9361,3.9355,3.9352,3.9346,3.9343,3.9339,3.9335,3.9327,3.9322,3.9318,3.9313,3.9304,3.9298,3.9296,3.9293,3.9292,3.929,3.9297,3.9298,3.9298,3.93,3.9291,3.9291,3.9282,3.9282,3.9282]}]]